User: anonymous   Login
Location: Biharia
(46.4333°N, 22.8000°E)
Time: 13:25:03
(UTC+00:00)
Language:

COSMO-SKYMED 1 - Orbit

View from above orbital plane
View from above orbital plane
View from above satellite
View from above satellite

Ground track
Ground track

The orbit data is extracted from the following two-line orbital elements,

1 31598U 07023A   22020.08119435  .00000474  00000-0  66075-4 0  9998
2 31598  97.8806 205.8904 0001450  97.9653 262.1705 14.82159410790984
Epoch (UTC): 20 January 2022 01:56:55
Eccentricity: 0.0001450
inclination: 97.8806°
perigee height: 621 km
apogee height: 623 km
right ascension of ascending node: 205.8904°
argument of perigee: 97.9653°
revolutions per day: 14.82159410
mean anomaly at epoch: 262.1705°
orbit number at epoch: 79098

The dashed part of the orbit path shows where the satellite is in the earth's shadow,  

DLR